Location: Antioch Baptist Church
(32.6696°N, 85.7327°W)
Time: 11:24:02
(UTC+00:00)

MSX - Pass Details

Date: 14 July 2020
Orbit: 894 x 906 km, 98.8° (Epoch: 08 August)

Event Time Altitude Azimuth Distance (km) Brightness Sun altitude
Rises 08:54:55 0° 16° (NNE) 3,513 7.9 -19.9°
Reaches altitude 10° 08:57:20 10° 19° (NNE) 2,570 7.1 -19.5°
Maximum altitude 09:03:02 67° 102° (ESE) 968 4.1 -18.7°
Enters shadow 09:07:32 17° 182° (S) 2,119 5.4 -18.0°
